FW0647 Weather Reports


Display with metric or nautical units.
time (UTC)temp
F
wind
direction
speed
MPH
gust
MPH
rain 1hr
in
rain 24hr
in
rain mn
in
humidity
%
barometer
mb
20260509201528 92 360 0.0 0.0 0.00 0.00 0.00 42 1013.3
20260509200026 90 360 0.0 0.0 0.00 0.00 0.00 44 1013.4
20260509194526 89 360 0.0 1.0 0.00 0.00 0.00 44 1013.6
20260509193028 89 360 0.0 0.0 0.00 0.00 0.00 45 1013.9
20260509191522 90 360 0.0 0.0 0.00 0.00 0.00 47 1013.9
20260509190019 89 360 0.0 0.0 0.00 0.00 0.00 46 1014.2
20260509184526 87 360 0.0 1.0 0.00 0.00 0.00 48 1014.4
20260509183018 86 360 0.0 1.0 0.00 0.00 0.00 51 1014.4
20260509181512 86 360 0.0 1.0 0.00 0.00 0.00 50 1014.5
20260509180008 85 360 0.0 1.0 0.00 0.00 0.00 53 1014.8
20260509174505 84 360 0.0 1.0 0.00 0.00 0.00 55 1014.8
20260509173002 83 360 0.0 1.0 0.00 0.00 0.00 56 1014.9
20260509171557 82 360 0.0 1.0 0.00 0.00 0.00 57 1015.0
20260509170058 81 360 0.0 1.0 0.00 0.00 0.00 59 1015.0
20260509164600 80 360 0.0 4.0 0.00 0.00 0.00 60 1015.2
20260509163048 79 360 0.0 4.0 0.00 0.00 0.00 60 1015.3
20260509161554 78 360 0.0 2.0 0.00 0.00 0.00 62 1015.3
20260509160044 78 360 0.0 2.0 0.00 0.00 0.00 63 1015.4
20260509154542 77 360 0.0 2.0 0.00 0.00 0.00 65 1015.3
20260509153039 76 360 0.0 1.0 0.00 0.00 0.00 67 1015.0
20260509151536 75 360 0.0 1.0 0.00 0.00 0.00 68 1015.1
20260509150039 75 360 0.0 2.0 0.00 0.00 0.00 70 1015.2
20260509144536 74 111 0.0 2.0 0.00 0.00 0.00 75 1015.3
20260509143028 73 360 0.0 1.0 0.00 0.00 0.00 78 1015.3
20260509141526 71 360 0.0 1.0 0.00 0.00 0.00 80 1015.5
20260509140023 70 360 0.0 2.0 0.00 0.00 0.00 81 1015.5
20260509134522 70 360 0.0 4.0 0.00 0.00 0.00 81 1015.5
20260509133025 70 360 0.0 2.0 0.00 0.00 0.00 81 1015.4
20260509131520 69 360 0.0 4.0 0.00 0.00 0.00 81 1015.3
20260509130037 69 360 0.0 2.0 0.00 0.00 0.00 80 1015.3
20260509124523 69 360 0.0 1.0 0.00 0.00 0.00 80 1015.3
20260509123022 68 360 0.0 1.0 0.00 0.00 0.00 80 1015.1
20260509121517 68 360 0.0 1.0 0.00 0.00 0.00 80 1015.0
20260509120021 68 360 0.0 1.0 0.00 0.00 0.00 80 1014.8
20260509114511 68 360 0.0 0.0 0.00 0.00 0.00 79 1014.9
20260509113011 68 360 0.0 1.0 0.00 0.00 0.00 79 1014.5
20260509111507 69 360 0.0 1.0 0.00 0.00 0.00 78 1014.1
20260509110005 69 360 0.0 2.0 0.00 0.00 0.00 78 1014.0
20260509104503 70 360 0.0 1.0 0.00 0.00 0.00 80 1014.0
20260509103001 71 360 0.0 0.0 0.00 0.00 0.00 80 1013.9
20260509101603 72 360 0.0 0.0 0.00 0.00 0.00 79 1013.8
20260509100059 71 360 0.0 2.0 0.00 0.00 0.00 82 1014.0
20260509094557 70 360 0.0 7.0 0.00 0.00 0.00 84 1013.8
20260509093056 71 360 0.0 5.0 0.00 0.00 0.00 84 1012.5
20260509091601 71 360 0.0 2.0 0.00 0.00 0.00 85 1010.8
20260509090054 70 360 0.0 4.0 0.00 0.00 0.00 85 1011.3
20260509084552 70 360 0.0 4.0 0.00 0.00 0.00 86 1011.4
20260509083049 70 360 0.0 4.0 0.00 0.00 0.00 86 1011.9
20260509081551 70 360 0.0 2.0 0.00 0.00 0.00 86 1012.1
20260509080045 70 360 0.0 0.0 0.00 0.00 0.00 86 1012.7
20260509074543 70 360 0.0 0.0 0.00 0.00 0.00 86 1013.0
20260509073039 71 360 0.0 8.0 0.00 0.00 0.00 86 1014.5
20260509071538 70 360 0.0 4.0 0.00 0.00 0.00 87 1015.1
20260509070037 70 360 0.0 4.0 0.00 0.00 0.00 88 1016.0
20260509064536 70 360 0.0 2.0 0.00 0.05 0.00 87 1016.5
20260509063034 70 360 0.0 0.0 0.00 0.05 0.00 87 1016.0
20260509061533 70 360 0.0 0.0 0.00 0.05 0.00 87 1016.3
20260509060033 70 360 0.0 0.0 0.00 0.05 0.00 87 1016.0
20260509054532 70 360 0.0 0.0 0.00 0.05 0.00 87 1016.1
20260509053031 71 360 0.0 0.0 0.00 0.05 0.00 86 1016.0
20260509051528 71 360 0.0 0.0 0.00 0.05 0.00 86 1015.4
20260509050036 71 360 0.0 0.0 0.00 0.05 0.00 86 1015.0
20260509044526 71 360 0.0 0.0 0.00 0.05 0.05 85 1014.6
20260509043025 71 360 0.0 0.0 0.00 0.05 0.05 84 1015.1
20260509041526 72 360 0.0 0.0 0.00 0.05 0.05 84 1015.1
20260509040024 72 360 0.0 0.0 0.00 0.05 0.05 83 1015.2
20260509034524 72 360 0.0 0.0 0.00 0.05 0.05 83 1014.9
20260509033023 72 360 0.0 0.0 0.00 0.05 0.05 83 1014.1
20260509031524 72 360 0.0 0.0 0.00 0.05 0.05 82 1013.9
20260509030033 73 360 0.0 1.0 0.00 0.05 0.05 82 1013.7
20260509024522 73 360 0.0 1.0 0.00 0.05 0.05 82 1013.3
20260509023027 73 360 0.0 0.0 0.00 0.05 0.05 81 1013.0
20260509021521 73 360 0.0 1.0 0.00 0.05 0.05 80 1013.1
20260509020020 73 360 0.0 0.0 0.00 0.05 0.05 79 1013.2
20260509014520 74 360 0.0 0.0 0.00 0.05 0.05 78 1013.4
20260509013019 74 360 0.0 0.0 0.00 0.05 0.05 78 1013.4
20260509011519 74 360 0.0 0.0 0.00 0.05 0.05 77 1013.2
20260509010018 74 360 0.0 1.0 0.00 0.05 0.05 77 1013.0
20260509004529 75 360 0.0 0.0 0.00 0.05 0.05 76 1012.8
20260509003016 74 360 0.0 0.0 0.00 0.05 0.05 76 1012.6
20260509001514 75 360 0.0 1.0 0.00 0.05 0.05 75 1012.8
20260509000021 75 360 0.0 1.0 0.00 0.05 0.05 75 1013.0
20260508234513 75 360 0.0 0.0 0.00 0.05 0.05 74 1013.1
20260508233012 75 360 0.0 1.0 0.00 0.05 0.05 73 1013.2
20260508231512 75 360 0.0 1.0 0.00 0.05 0.05 73 1013.1
20260508230011 76 360 0.0 2.0 0.00 0.05 0.05 71 1013.2
20260508224511 77 360 0.0 1.0 0.00 0.05 0.05 69 1013.1
20260508223010 78 210 0.0 0.0 0.00 0.05 0.05 68 1013.1
20260508221509 78 360 0.0 1.0 0.00 0.05 0.05 67 1013.1
20260508220007 78 360 0.0 0.0 0.00 0.05 0.05 66 1013.3
20260508214504 79 360 0.0 2.0 0.00 0.05 0.05 64 1013.5
20260508213006 76 360 0.0 1.0 0.00 0.05 0.05 67 1013.6
20260508211600 76 360 0.0 0.0 0.00 0.05 0.05 67 1013.9
20260508210058 76 360 0.0 1.0 0.00 0.05 0.05 66 1014.4
20260508204604 75 179 0.0 0.0 0.00 0.05 0.05 67 1014.9
20260508203056 75 228 0.0 0.0 0.00 0.05 0.05 66 1014.8